This demonstration page uses our WeatherBlox Daily Observations layout. Learn more.

Left ArrowRight Arrow

Hourly Observations for March 21, 2015

Temp ( °F °C ) Dew Point ( °F °C ) Humidity (%) Winds ( mph kmh ) Pressure ( in mb ) Visibility ( mi km ) Precip ( " mm )
12:15 am 00:15 Mostly Cloudy 45 7 32 undefined 61 61 WSW 8 13 30.15 1021 10 16 N/A
12:36 am 00:36 Mostly Cloudy 45 7 32 undefined 61 61 WSW 7 11 30.15 1021 10 16 N/A
12:55 am 00:55 Cloudy 45 7 32 undefined 61 61 SW 7 11 30.15 1021 10 16 N/A
1:15 am 01:15 Mostly Cloudy 45 7 32 undefined 61 61 WSW 7 11 30.15 1021 10 16 N/A
1:36 am 01:36 Cloudy 45 7 32 undefined 61 61 W 6 9 30.15 1021 10 16 N/A
1:55 am 01:55 Mostly Cloudy 43 6 34 1 71 71 W 6 9 30.15 1021 10 16 N/A
2:15 am 02:15 Cloudy 45 7 32 undefined 61 61 W 6 9 30.15 1021 10 16 N/A
2:36 am 02:36 Cloudy 45 7 32 undefined 61 61 W 7 11 30.15 1021 10 16 N/A
2:55 am 02:55 Cloudy 43 6 32 undefined 66 66 W 8 13 30.15 1021 10 16 N/A
3:16 am 03:16 Partly Cloudy 41 5 34 1 76 76 WSW 7 11 30.15 1021 10 16 N/A
3:36 am 03:36 Clear 39 4 39 4 100 100 WSW 5 7 30.15 1021 10 16 N/A
3:55 am 03:55 Clear 37 3 N/A N/A WSW 5 7 30.18 1022 7 11 N/A
4:16 am 04:16 Clear 37 3 N/A N/A SW 5 7 30.15 1021 7 11 N/A
4:36 am 04:36 Clear 37 3 N/A N/A SW 6 9 30.15 1021 7 11 N/A
4:55 am 04:55 Clear 37 3 N/A N/A SW 6 9 30.15 1021 7 11 N/A
5:16 am 05:16 Clear 37 3 N/A N/A SW 6 9 30.15 1021 7 11 N/A
5:36 am 05:36 Clear 37 3 N/A N/A SW 8 13 30.15 1021 7 11 N/A
5:55 am 05:55 Clear 37 3 N/A N/A SW 8 13 30.12 1020 5 8 N/A
6:16 am 06:16 Clear 37 3 N/A N/A SW 7 11 30.15 1021 5 8 N/A
6:36 am 06:36 Clear 37 3 N/A N/A SW 7 11 30.15 1021 5 8 N/A
6:55 am 06:55 Clear 37 3 N/A N/A SW 6 9 30.15 1021 5 8 N/A
7:16 am 07:16 Clear 37 3 N/A N/A SSW 3 6 30.15 1021 5 8 N/A
7:35 am 07:35 Clear 36 2 N/A N/A SSW 3 6 30.15 1021 4 6 N/A
7:56 am 07:56 Sunny 36 2 N/A N/A SSW 5 7 30.15 1021 4 6 N/A
8:16 am 08:16 Sunny 36 2 N/A N/A S 6 9 30.15 1021 3 4 N/A
8:35 am 08:35 Sunny 37 3 N/A N/A S 7 11 30.15 1021 3 5 N/A
8:56 am 08:56 Sunny 39 4 N/A N/A S 8 13 30.12 1020 3 5 N/A
9:16 am 09:16 Sunny 41 5 N/A N/A SSW 10 17 30.12 1020 4 6 N/A
9:35 am 09:35 Sunny 43 6 N/A N/A SW 9 15 30.12 1020 4 6 N/A
9:56 am 09:56 Sunny 45 7 45 7 100 100 WSW 12 19 30.12 1020 7 11 N/A
10:16 am 10:16 Sunny 46 8 34 1 62 62 SW 14 22 30.12 1020 7 11 N/A
10:35 am 10:35 Sunny 48 9 36 2 62 62 WSW 12 19 30.12 1020 7 11 N/A
10:56 am 10:56 Sunny 50 10 34 1 54 54 WSW 12 19 30.12 1020 7 11 N/A
11:15 am 11:15 Sunny 52 11 34 1 50 50 WSW 13 20 30.12 1020 10 16 N/A
11:36 am 11:36 Sunny 54 12 34 1 47 47 W 16 26 30.12 1020 10 16 N/A
11:56 am 11:56 Sunny 55 13 34 1 44 44 W 16 26 30.09 1019 10 16 N/A
12:15 pm 12:15 Sunny 55 13 34 1 44 44 W 12 19 30.09 1019 10 16 N/A
12:36 pm 12:36 Sunny 57 14 32 undefined 39 39 W 12 19 30.09 1019 10 16 N/A
12:56 pm 12:56 Sunny 59 15 32 undefined 36 36 W 13 20 30.09 1019 10 16 N/A
1:15 pm 13:15 Sunny 59 15 32 undefined 36 36 WNW 13 20 30.09 1019 10 16 N/A
1:36 pm 13:36 Sunny 61 16 30 -1 31 31 W 12 19 30.09 1019 10 16 N/A
1:56 pm 13:56 Sunny 61 16 30 -1 31 31 WNW 10 17 30.09 1019 10 16 N/A
2:15 pm 14:15 Sunny 61 16 30 -1 31 31 W 16 26 30.09 1019 10 16 N/A
2:36 pm 14:36 Sunny 63 17 28 -2 27 27 NW 9 15 30.09 1019 10 16 N/A
2:55 pm 14:55 Sunny 61 16 28 -2 29 29 NNW 12 19 30.09 1019 10 16 N/A
3:16 pm 15:16 Sunny 61 16 25 -4 25 25 NW 9 15 30.09 1019 10 16 N/A
3:36 pm 15:36 Sunny 63 17 27 -3 25 25 WNW 9 15 30.09 1019 10 16 N/A
3:55 pm 15:55 Sunny 63 17 25 -4 24 24 WNW 12 19 30.09 1019 10 16 N/A
4:16 pm 16:16 Sunny 63 17 25 -4 24 24 N 12 19 30.09 1019 10 16 N/A
4:36 pm 16:36 Sunny 61 16 27 -3 27 27 NW 12 19 30.09 1019 10 16 N/A
4:55 pm 16:55 Sunny 61 16 28 -2 29 29 NNW 14 22 30.09 1019 10 16 N/A
5:16 pm 17:16 Sunny 59 15 30 -1 34 34 N 14 22 30.09 1019 10 16 N/A
5:36 pm 17:36 Sunny 57 14 32 undefined 39 39 NNW 16 26 30.09 1019 10 16 N/A
5:55 pm 17:55 Sunny 57 14 32 undefined 39 39 N 13 20 30.09 1019 10 16 N/A
6:16 pm 18:16 Sunny 55 13 30 -1 38 38 N 14 22 30.09 1019 10 16 N/A
6:35 pm 18:35 Sunny 55 13 30 -1 38 38 N 12 19 30.12 1020 10 16 N/A
6:55 pm 18:55 Sunny 55 13 28 -2 36 36 NNW 10 17 30.12 1020 10 16 N/A
7:16 pm 19:16 Sunny 54 12 30 -1 41 41 N 10 17 30.15 1021 10 16 N/A
7:35 pm 19:35 Sunny 52 11 30 -1 44 44 N 9 15 30.18 1022 10 16 N/A
7:56 pm 19:56 Sunny 48 9 30 -1 50 50 N 7 11 30.18 1022 10 16 N/A
8:16 pm 20:16 Clear 46 8 32 undefined 57 57 N 9 15 30.18 1022 10 16 N/A
8:35 pm 20:35 Clear 45 7 30 -1 57 57 N 8 13 30.18 1022 10 16 N/A
8:56 pm 20:56 Clear 45 7 30 -1 57 57 N 7 11 30.18 1022 10 16 N/A
9:16 pm 21:16 Clear 45 7 30 -1 57 57 N 8 13 30.21 1023 10 16 N/A
9:35 pm 21:35 Clear 43 6 28 -2 57 57 N 7 11 30.21 1023 10 16 N/A
9:56 pm 21:56 Clear 43 6 28 -2 57 57 N 7 11 30.21 1023 10 16 N/A
10:16 pm 22:16 Clear 41 5 27 -3 57 57 N 8 13 30.21 1023 10 16 N/A
10:35 pm 22:35 Clear 41 5 27 -3 57 57 NNE 9 15 30.21 1023 10 16 N/A
10:56 pm 22:56 Clear 41 5 25 -4 53 53 NNE 9 15 30.21 1023 10 16 N/A
11:15 pm 23:15 Clear 39 4 23 -5 52 52 NNE 6 9 30.24 1024 10 16 N/A
11:35 pm 23:35 Clear 39 4 23 -5 52 52 NNE 8 13 30.24 1024 10 16 N/A
11:56 pm 23:56 Clear 37 3 23 -5 56 56 NNE 8 13 30.24 1024 10 16 N/A

Powered by AerisWeather